Regional Weather Roundup
Issued by NWS Goodland, KS

Home | Current Version | Previous Version | Text Only | Print | Product List | Glossary On
Versions: 1 2 3 4 5 6 7 8 9 10 11 12 13 14 15 16 17 18 19 20 21 22 23 24 25 26 27 28 29 30 31 32 33 34 35 36 37 38 39 40 41 42 43 44 45 46 47 48 49 50
000
ASUS43 KGLD 011008
RWRGLD

GOODLAND FORECAST AREA HOURLY WEATHER ROUNDUP
NATIONAL WEATHER SERVICE GOODLAND KS
400 AM MDT TUE SEP 01 2015

...OFFICIAL OBSERVATIONS...

CITY           SKY/WX    TMP DP  RH WIND       PRES   REMARKS
GOODLAND KS    PTCLDY    63  60  90 SW7       30.01R
HILL CITY KS   CLOUDY    71  55  56 S6        29.95F
IMPERIAL NEB   MOCLDY    64  60  87 W12       29.95R
MCCOOK NEB     CLOUDY    69  64  84 CALM      29.91R
AKRON CO       PTCLDY    59  55  87 W9        30.05R
BURLINGTON CO  PTCLDY    60  57  89 SW7       30.06S
LIMON CO       MOCLDY    53  52  96 CALM      30.14R
$$

...UNOFFICIAL OBSERVATIONS...

CITY           SKY/WX    TMP DP  RH WIND       PRES   REMARKS
COLBY KS       CLEAR     66  66 100 S5        30.00S
GOVE KS          N/A     71  32  23 MISG        N/A
LENORA KS        N/A     70  32  24 MISG        N/A
NORTON KS      PTCLDY    70  52  52 S6        29.92F
SHARON SPRINGS   N/A     67  62  83 W6          N/A
KIT CARSON CO    N/A     61  58  88 MISG        N/A
YUMA CO          N/A     59  56  91 W6          N/A
$$



USA.gov is the U.S. government's official web portal to all federal, state and local government web resources and services.